Regional Weather Roundup
Issued by NWS Spokane, WA

Home | Current Version | Previous Version | Text Only | Print | Product List | Glossary On
Versions: 1 2 3 4 5 6 7 8 9 10 11 12 13 14 15 16 17 18 19 20 21 22 23 24 25 26 27 28 29 30 31 32 33 34 35 36 37 38 39 40 41 42 43 44 45 46 47 48 49 50
000
NZUS01 KOTX 291310
RWROTX
EASTERN WASHINGTON/NORTHERN IDAHO ROUNDUP
NATIONAL WEATHER SERVICE, SPOKANE WA
600 AM PDT FRI MAY 29 2015

Note: "fair" indicated few or no clouds below 12,000 feet with no
significant weather and/or obstructions to visibility.

...NORTHEAST WASHINGTON AND NORTHERN IDAHO PANHANDLE...

CITY           SKY/WX    TMP DP  RH WIND       PRES   REMARKS
SPOKANE INTL   MOCLDY    56  51  84 NE10      30.07R
SPOKANE DOWNTO CLEAR     56  53  90 CALM      30.07S
COEUR D ALENE  CLEAR     54  48  82 NE8       30.09R
DEER PARK      CLEAR     57  50  77 N13       30.08S
SANDPOINT      PTCLDY    54  48  82 NE14      30.11S
BONNERS FERRY  FAIR      50  48  93 E5        30.14S

...SOUTHEAST WASHINGTON AND SOUTHERN IDAHO PANHANDLE...

CITY           SKY/WX    TMP DP  RH WIND       PRES   REMARKS
WALLA WALLA    PTCLDY    64  50  60 SE7       29.97R
PULLMAN/MOSCOW CLEAR     57  47  69 E10       30.06R
LEWISTON       CLEAR     58  51  78 E6        30.03R
LOWELL           N/A     50  47  89 N3        30.13R

...COLUMBIA BASIN...

CITY           SKY/WX    TMP DP  RH WIND       PRES   REMARKS
EPHRATA        CLOUDY    64  53  67 N9        30.01S
MOSES LAKE     CLOUDY    61  51  70 N7        30.01S
TRI CITIES     MOCLDY    56  54  93 N6        29.96S
HERMISTON      MOCLDY    55  50  83 CALM      29.95R
PENDLETON      PTCLDY    57  49  74 SE8       29.96F

...EAST SLOPES CASCADES...

CITY           SKY/WX    TMP DP  RH WIND       PRES   REMARKS
THE DALLES     PTCLDY    60  53  77 CALM      29.94S
YAKIMA         MOCLDY    59  51  75 W5        29.99R
ELLENSBURG     CLOUDY    58  52  80 NE6       30.01S
WENATCHEE      CLOUDY    63  53  70 CALM      30.01S
OMAK           CLOUDY    59  53  80 W3        30.03S

...SOUTHERN BRITISH COLUMBIA...

CITY           SKY/WX    TMP DP  RH WIND       PRES   REMARKS
PENTICTON      MOCLDY    64  55  72 CALM      30.01R
CASTLEGAR      LGT RAIN  57  57 100 CALM      30.11
CRANBROOK      PTSUNNY   50  48  93 VRB2      30.18R

...WESTERN MONTANA...

CITY           SKY/WX    TMP DP  RH WIND       PRES   REMARKS
MISSOULA       MOSUNNY   53  41  63 SE10      30.20S

...NEIGHBORING CITIES...

CITY           SKY/WX    TMP DP  RH WIND       PRES   REMARKS
SEATTLE        MOCLDY    57  53  86 CALM      30.01R
CALGARY        PTSUNNY   45  39  81 SE12      30.23S



USA.gov is the U.S. government's official web portal to all federal, state and local government web resources and services.